Airport METAR Information

LTBA 220150Z 05010KT 9999 SCT025 15/10 Q1018 NOSIG

VATSIM Livefeed

Card image cap

ATC Bookings

No position booked

Card image cap

Active ATC

No controllers online

Blog

Read our latest news and get to know us better.